Regional Weather Roundup
Issued by NWS Wakefield, VA

Home | Current Version | Previous Version | Text Only | Print | Product List | Glossary Off
Versions: 1 2 3 4 5 6 7 8 9 10 11 12 13 14 15 16 17 18 19 20 21 22 23 24 25 26 27

000
ASUS41 KAKQ 152210
RWRAKQ

REGIONAL WEATHER ROUNDUP
NATIONAL WEATHER SERVICE WAKEFIELD VA
600 PM EDT TUE APR 15 2014

Note: "fair" indicates few or no clouds below 12,000 feet with no
significant weather and/or obstructions to visibility. * = Denotes
station may not report precipitation (e.g., rain,snow,etc.),
thunder or fog.

VAZ042-051-052>054-056-152300-
NORTHERN VIRGINIA

CITY           SKY/WX    TMP DP  RH WIND       PRES   REMARKS
WASH NATIONAL  RAIN      44  38  79 N24G33    29.79R
DULLES         LGT RAIN  42  37  82 NW20G25   29.79R
FORT BELVOIR   LGT RAIN  45  41  87 NW14G22   29.81R
QUANTICO       LGT RAIN  45  39  79 N20G36    29.79R
FREDERICKSBRG* DRIZZLE   46  43  87 N16G26    29.75R
STAFFORD*      LGT RAIN  45  43  95 N23G35    29.80R
WARRENTON      RAIN      45  42  91 N17G26    29.77R
CULPEPER*      RAIN      45  45 100 N15G23    29.78R
MANASSAS*      LGT RAIN  45  41  87 N20G29    29.78R
LEESBURG*      RAIN      43  41  93 N17G23    29.83R
WINCHESTER     LGT RAIN  41  36  81 NW9G23    29.87R
$$

VAZ048-049-060>072-079>083-152300-
CENTRAL AND SOUTH CENTRAL VIRGINIA...AND NORTH CENTRAL NORTH CAROLINA

CITY           SKY/WX    TMP DP  RH WIND       PRES   REMARKS
RICHMOND       LGT RAIN  52  48  86 N30G37    29.67R FOG
CHESTERFIELD*  CLOUDY    52  41  66 N16G28    29.71R
HANOVER        LGT RAIN  47  45  93 N14G23    29.74R FOG
TAPPAHANNOCK*  RAIN      48  44  87 NW16G23   29.71R
CHARLOTTSVILLE LGT RAIN  43  38  82 N13G23    29.76R
ORANGE*        LGT RAIN  45  43  93 NW10      29.77R
LOUISA*        RAIN      48  46  93 N5        29.73R
FARMVILLE*     LGT RAIN  52  50  93 N5        29.71R
SOUTH HILL*    RAIN      54  54 100 NW10G18   29.75R
ROANOKE RAPIDS CLOUDY    66  63  88 S8        29.61S
RALEIGH        LGT RAIN  49  44  83 N9G31     29.69R FOG
$$

VAZ088>098-152300-
SOUTHEAST VIRGINIA

CITY           SKY/WX    TMP DP  RH WIND       PRES   REMARKS
NORFOLK        CLOUDY    72  64  76 S16G29    29.60F
VIRGINIA BEACH CLOUDY    73  62  68 S17G30    29.61F
NORFOLK NAVAL  CLOUDY    74  64  71 S13G21    29.61F
WEST POINT*    CLOUDY    58  52  79 N20G35    29.65R VSB 1/4
NEWPORT NEWS   LGT RAIN  74  64  71 S9        29.59S
LANGLEY AFB    CLOUDY    71  67  86 S9        29.61S
FORT EUSTIS    LGT RAIN  70  66  88 SW10G18   29.58S FOG
WILLIAMSBURG*  CLOUDY    70  66  88 W6        29.61R
FRANKLIN*      CLOUDY    72  66  83 S14G20    29.61R
WAKEFIELD      HVY RAIN  68  65  90 SW8G21    29.61R FOG
$$

VAZ020-022-025-037-045-152300-
WESTERN AND SOUTHWEST VIRGINIA

CITY           SKY/WX    TMP DP  RH WIND       PRES   REMARKS
STAUNTON*      DRIZZLE   42  34  75 N6        29.81F
HOT SPRINGS VA FLURRIES  28  28 100 W15G30    29.79R WCI  17
LYNCHBURG      LGT RAIN  48  39  71 VRB5      29.77R
DANVILLE       LGT RAIN  45  40  82 N17       29.77R
MARTINSVILLE   LGT RAIN  42  35  75 N16G25    29.82R
ROANOKE        CLOUDY    44  32  62 NW17G26   29.83R
BLACKSBURG     CLOUDY    37  32  81 NW14G22   29.86R
DUBLIN*        CLOUDY    36  29  75 NW15G23   29.88R
MARION*        CLOUDY    32  27  81 NW17G26   29.91R WCI  21
HILLSVILLE*    PTSUNNY   34  25  69 NW26G36   29.86R WCI  21
RICHLANDS*     CLOUDY    34  30  87 NW8       29.94R
WISE*          CLOUDY    32  30  93 NW10G17   29.99R WCI  24
ABINGDON*      CLOUDY    36  29  76 N5        29.97R
$$

MDZ021>025-VAZ099-100-152300-
SOUTHERN MARYLAND AND THE DELMARVA PENINSULA

CITY           SKY/WX    TMP DP  RH WIND       PRES   REMARKS
PATUXENT RIVER LGT RAIN  47  42  83 NW29G37   29.71R
BAY BRIDGE APT LGT RAIN  45  43  93 NW20G30   29.76R
LEONARDTOWN    CLOUDY    45  41  87 NW9G22    29.75R
DOVER          CLOUDY    48  48 100 NW24G35   29.67R
GEORGETOWN     LGT RAIN  54  52  93 N14G23    29.66R
EASTON         LGT RAIN  48  48 100 NW17G29   29.75R FOG
CAMBRIDGE      CLOUDY    52  46  82 NW22G32   29.71R
SALISBURY      LGT RAIN  57  54  88 NW15      29.64R
OCEAN CITY     LGT RAIN  57  56  96 S9G18     29.63F FOG
WALLOPS ISLAND LGT RAIN  59  58  96 S13       29.62F FOG
ACCOMACK*      RAIN      70 N/A N/A S9        29.61F
$$

NCZ012>017-030>032-152300-
EASTERN NORTH CAROLINA

CITY           SKY/WX    TMP DP  RH WIND       PRES   REMARKS
ELIZABETH CITY LGT RAIN  71  63  75 S14G29    29.66S
AHOSKIE*       CLOUDY    71  64  78 S12G22    29.62S
EDENTON*       CLOUDY    71  64  77 S22G29    29.66R
CURRITUCK*     RAIN      71  62  73 S9        29.66R
KILL DEVIL HLS LGT RAIN  69  65  85 S9G17     29.69F
MANTEO         RAIN      68  65  88 SW17      29.71S
CAPE HATTERAS  CLOUDY    69  65  86 S13       29.75S FOG
GOLDSBORO      CLOUDY    72  66  83 S14G22    29.62S
WASHINGTON     CLOUDY    73  67  81 S13G20    29.66R
GREENVILLE     CLOUDY    72  64  78 S14       29.68S
NEW BERN       CLOUDY    70  66  87 S15G24    29.69S
WILMINGTON     CLOUDY    71  64  78 S16G26    29.69S
$$

VAZ048-152300-
ELSEWHERE

CITY           SKY/WX    TMP DP  RH WIND       PRES   REMARKS
HARRISBURG PA  LGT RAIN  42  35  76 NW14G23   29.81R
BALTIMORE      LGT RAIN  44  40  85 NW15G24   29.76R FOG
ANNAPOLIS      LGT RAIN  47  44  90 N21G28    29.77R FOG
ANDREWS AFB    HVY RAIN  43  41  93 NW13      29.77R FOG
WILMINGTON DE  RAIN      47  43  86 NW15      29.73R FOG
PHILADELPHIA   RAIN      50  44  80 NW16G29   29.70R
WILDWOOD NJ*   CLOUDY    52  48  87 NW14G23   29.68R
ATLANTIC CITY  LGT RAIN  57  55  93 NW16      29.64R
HENDERSON NC   HVY RAIN  47  45  91 NW13G23   29.73R
GREENSBORO     HVY RAIN  45  41  87 N10       29.75R FOG
ROCKY MOUNT      N/A    N/A N/A N/A MISG      29.62S
FAYETTEVILLE   CLOUDY    72  65  78 SW9       29.62S
CHARLOTTE      PTSUNNY   52  48  86 N10       29.74R
$$

VAZ100-152300-
MARINE

STATION/POSITION TIME  TEMP    WIND        PRES    WAVE   SWELL
                       AIR SEA DIR/SP/G            HT/PER HT/PER
                 (UTC) (F)     (DEG/KT/KT) (MB)    (FT/S) (FT/S)
44066 TX TWR #4  2200   55 46  190/ 27/ 33 1003.8F  12/10   8/10
CAPE MAY NJ      2200   54 56  330/ 22/ 31 1004.2R
LEWES DE         2200   65 49  310/ 14/ 22 1003.3R
15NM E FENWICK I 2200   53 46              1003.4F   8/ 9
OCEAN-CITY-INLET 2200   53 56  210/ 13/ 15 1003.1R
WACHAPREAGUE VA  2200   63 65  190/ 10/ 13 1002.5F
THOMAS POINT MD  2200   46 54  340/ 23/ 27 1007.2R
GOOSES REEF MD   2200   48     350/ 23/ 31 1006.4S
COVE POINT MD    2200   46     340/ 27/ 32 1005.7R
SOLOMONS ISLAND  2200      55                N/A
BISHOPS HEAD MD  2200   51 60  330/ 19/ 24 1004.3R
PINEY POINT MD   2200           10/ 29/ 33   N/A
POTOMAC MD       2200   51     360/ 23/ 33 1004.2R
CAMBRIDGE MD     2200   52 58  320/ 19/ 24 1005.0R
LEWISETTA VA     2200      56  350/ 20/ 31 1005.2F
RAPPAHANNOCK LGT 2200          150/ 12/ 13 1002.6S
STINGRAY PT      2200   59     190/  6/  8 1002.1F
YORK RVR RNG VA  2200   67     190/ 16/ 19 1001.2R
YORKTOWN VA      2200   71 58  200/  8/ 11 1001.6F
JAMESTOWN VA     2200   68     250/  8/ 14   N/A
DOMINION TERM VA 2200   70     190/ 13/ 15 1002.2R
KIPTOPEKE VA     2200      58  180/ 17/ 19   N/A
CHES BAY BRIDGE  2200   71 56  170/ 17/ 22 1002.6R
CAPE HENRY VA    2200   72     180/ 16/ 21   N/A
CHESAPEAKE LGHT  2100   57     180/ 32/ 33 1002.7F
WILLOUBY STN VA  2200   72     180/ 16/ 20 1001.4F
S CRANEY ISL VA  2200          180/ 11/ 17 1002.3F
CAPE HENRY BUOY  2200      48                N/A     6/ 8
1ST LANDING BUOY 2200      52                N/A     6/ 8   3/ 8
64NM E OF VA BCH 2200   61 53  170/ 17/ 21 1005.7F  10/ 9   7/ 9
DUCK PIER NC     2200   70 48  190/ 19/ 23 1004.2R
44100 DUCK FRF   2200      49                N/A     6/ 8   2/11
44056 DUCK FRF   2200      48                N/A     5/ 8
OREGON INLET NC  2200   69 71  180/ 21/ 23 1006.3S
HATTERAS NC      2200   69 66  170/  8/ 15 1007.5S
CAPE LOOKOUT NC  2100   67     180/ 14/ 15 1007.0S
FRYING PAN SHLS  2200   69 66  180/ 19/ 21 1006.0F   7/ 8   3/14
$$



USA.gov is the U.S. government's official web portal to all federal, state and local government web resources and services.